Starlink 32452

operational
NORAD ID: 61961 Int'l Des: 2024-210 Owner: SPXS Country: US Constellation: starlink
LEOCIRCULAR

Starlink 32452について

説明を読み込み中...

リアルタイム位置

3D地球を読み込み中...

次回通過

高度履歴

Altitude vs Time

uPlot chart will show altitude changes over time

軌道要素

1 61961U 24210C 26034.30767421 .00030715 00000-0 11199-2 0 9996
2 61961 43.0024 6.9072 0001232 228.2665 131.8081 15.27612679 69734
Epoch: Feb 3, 2026 • Age: 19 hours

現在のステータス

高度 483.1 km
速度 7.63 km/s
衛星直下点 0.08°N, 164.94°W
打ち上げ日 Nov 14, 2024
運用期間 1.2 years
タイプ internet

技術仕様

分類 Payload
質量 730.00 kg
乾燥質量 700.00 kg
総質量 730.00 kg
長さ 0.30 m
直径 4.10 m
スパン 29.00 m
形状 Box + pan
製造者 SPXS
バスタイプ Starlink V2M
フェーズステータス In Orbit
所有者/国 SPXS/US

大規模コンステレーション

Loading constellations...